Preview of NWS' New Version of Forecast
This preview is not operational and should not be used for support decisions.

Regional Weather Roundup (RWR)

Issued by National Weather Service (NWS)

                            
000
ASCA42 TJSJ 191510
RWRPR 
PUERTO RICO/U.S. VIRGIN ISLANDS HOURLY WEATHER ROUNDUP
NATIONAL WEATHER SERVICE SAN JUAN PR
1100 AM AST MON AUG 19 2019

PRZ001>002-007>008-010-191600-
PUERTO RICO
  
CITY           SKY/WX    TMP DP  RH WIND       PRES   REMARKS
SAN JUAN LMM   MOSUNNY   88  77  70 SE7       30.06F HX 100           
AGUADILLA      SUNNY     90  75  62 NE14G20   30.08S HX 100           
CEIBA          LGT RAIN  82  79  89 S10       30.08S HX  93           
$$

VIZ001>002-191600-
U.S. VIRGIN ISLANDS
  
CITY           SKY/WX    TMP DP  RH WIND       PRES   REMARKS
CHARLOTTE AMA  MOSUNNY   88  77  70 SE12      30.06R HX 100           
CHRISTIANSTED  MOSUNNY   88  75  66 E10       30.06R HX  97           
$$

HOURLY WEATHER ROUNDUP FOR THE NEWS MEDIA
  
CITY           SKY/WX    TMP DP  RH WIND       PRES   REMARKS
ORLANDO        FAIR      87  74  64 CALM      30.12R HX  95           
NEW YORK       FAIR      80  77  90 S8        30.00S                  
NEWARK         FAIR      85  72  65 W12       29.98S HX  91           
CHICAGO        FAIR      80  66  62 VRB5      30.01R                  
HARTFORD       PTSUNNY   84  70  62 W9        29.98R                  
BOSTON         FAIR      89  69  51 W16G22    29.95S HX  93           
DALLAS         MOSUNNY   87  73  62 S9        29.99S HX  94           
PHILADELPHIA   PTSUNNY   85  74  69 SW12      30.00S HX  92           
LOS ANGELES    CLOUDY    68  60  75 E3        29.97R                  
WASHINGTON DC  FAIR      87  68  52 CALM      30.02S HX  90